RYR16YG EGKK-EIDW

Flight info

Callsign RYR16YG
Flight time N/A
Altitude 32000
Route LAM L10 BPK UN601 LESTA UP6 RODOL UL28 LELDO M145 BAGSO BAGSO3R
Aircraft B38M/M-SDE1FGHILORVWXY/HB1

Departure

Time 2026-04-14 16:32
Airport London Gatwick Airport (EGKK)

Arrival

Time N/A
Airport Dublin Airport (EIDW)
Time Latitude Longitude Altitude Speed Heading
2026-04-14 15:20 51.15198 -0.18845 217 ft 0 kts 257°
2026-04-14 15:42 51.15198 -0.18844 206 ft 2 kts 257°
2026-04-14 15:43 51.15202 -0.18819 214 ft 2 kts 257°
2026-04-14 15:43 51.15206 -0.18794 213 ft 2 kts 254°
2026-04-14 15:43 51.15210 -0.18768 206 ft 2 kts 253°
2026-04-14 15:43 51.15215 -0.18744 210 ft 2 kts 250°
2026-04-14 15:44 51.15222 -0.18720 218 ft 2 kts 227°
2026-04-14 15:44 51.15231 -0.18713 214 ft 0 kts 161°
2026-04-14 16:02 51.15223 -0.18710 216 ft 6 kts 164°
2026-04-14 16:02 51.15149 -0.18659 212 ft 13 kts 135°
2026-04-14 16:02 51.15128 -0.18571 217 ft 9 kts 89°
2026-04-14 16:03 51.15160 -0.18375 215 ft 29 kts 71°
2026-04-14 16:03 51.15211 -0.18109 210 ft 29 kts 78°
2026-04-14 16:03 51.15255 -0.17799 209 ft 25 kts 74°
2026-04-14 16:03 51.15289 -0.17563 218 ft 19 kts 79°
2026-04-14 16:04 51.15301 -0.17416 214 ft 8 kts 99°
2026-04-14 16:04 51.15279 -0.17358 211 ft 4 kts 138°
2026-04-14 16:04 51.15247 -0.17301 215 ft 6 kts 116°
2026-04-14 16:04 51.15257 -0.17228 211 ft 11 kts 56°
2026-04-14 16:05 51.15272 -0.17147 213 ft 6 kts 86°
2026-04-14 16:05 51.15273 -0.17125 213 ft 0 kts 85°
2026-04-14 16:07 51.15273 -0.17112 213 ft 0 kts 90°
2026-04-14 16:11 51.15273 -0.17087 214 ft 10 kts 90°
2026-04-14 16:11 51.15276 -0.17018 212 ft 0 kts 82°
2026-04-14 16:12 51.15281 -0.16954 203 ft 9 kts 82°
2026-04-14 16:13 51.15282 -0.16947 203 ft 0 kts 82°
2026-04-14 16:16 51.15282 -0.16943 212 ft 3 kts 82°
2026-04-14 16:16 51.15285 -0.16912 203 ft 0 kts 83°
2026-04-14 16:26 51.15285 -0.16905 203 ft 5 kts 83°
2026-04-14 16:26 51.15286 -0.16867 203 ft 4 kts 91°
2026-04-14 16:26 51.15280 -0.16845 203 ft 1 kts 131°
2026-04-14 16:27 51.15278 -0.16843 203 ft 0 kts 142°
2026-04-14 16:27 51.15277 -0.16841 203 ft 1 kts 143°
2026-04-14 16:27 51.15249 -0.16829 204 ft 0 kts 164°
2026-04-14 16:28 51.15243 -0.16826 211 ft 0 kts 164°
2026-04-14 16:28 51.15184 -0.16796 201 ft 16 kts 170°
2026-04-14 16:29 51.15147 -0.16788 206 ft 5 kts 178°
2026-04-14 16:29 51.15110 -0.16818 206 ft 1 kts 247°
2026-04-14 16:29 51.15110 -0.16819 206 ft 0 kts 258°
2026-04-14 16:30 51.15108 -0.16838 203 ft 8 kts 259°
2026-04-14 16:31 51.15069 -0.17152 208 ft 54 kts 257°
2026-04-14 16:31 51.14965 -0.17878 209 ft 94 kts 256°
2026-04-14 16:31 51.14862 -0.18645 203 ft 117 kts 257°
2026-04-14 16:31 51.14676 -0.20027 310 ft 135 kts 264°
2026-04-14 16:32 51.14645 -0.21492 707 ft 142 kts 268°
2026-04-14 16:32 51.14546 -0.23226 1166 ft 164 kts 236°
2026-04-14 16:32 51.13982 -0.24994 1504 ft 201 kts 244°
2026-04-14 16:32 51.13600 -0.27395 1508 ft 247 kts 259°